Regional Weather Roundup
Issued by NWS

Home | Current Version | Previous Version | Text Only | Print | Product List | Glossary Off
Versions: 1 2 3 4 5 6 7 8 9 10 11 12 13 14 15 16 17 18 19 20 21 22 23 24 25 26 27 28 29 30 31 32 33 34 35 36 37 38 39 40 41 42 43 44 45 46 47 48 49 50

000
ASUS44 KMEG 280200
RWRTN
TENNESSEE HOURLY STATE WEATHER ROUNDUP
NATIONAL WEATHER SERVICE MEMPHIS TN
900 PM CDT MON JUL 27 2015

TNZ002-004-019-021-049-052-054-088>092-280300-
WEST TENNESSEE

CITY           SKY/WX    TMP DP  RH WIND       PRES   REMARKS
MEMPHIS INTL   PTCLDY    88  75  65 CALM      29.94R HX  97
NWS MEMPHIS      N/A     83 N/A N/A MISG        N/A
JACKSON        PTCLDY    83  79  88 CALM      29.94R HX  94
DYERSBURG        N/A    N/A N/A N/A MISG        N/A
PARIS          CLEAR     77  73  88 CALM      29.96R
$$

TNZ008-025-027-028-033-062-065-066-280300-
NORTH MIDDLE TENNESSEE

CITY           SKY/WX    TMP DP  RH WIND       PRES   REMARKS
NASHVILLE      MOCLDY    86  74  67 NW3       29.97R HX  94
CLARKSVILLE    MOCLDY    77  70  79 CALM      29.96R
COOKEVILLE     CLEAR     79  77  94 CALM      29.99R
CROSSVILLE     MOCLDY    77  71  82 S3        30.06R
$$

TNZ061-075-076-078-094-096-097-280300-
SOUTH MIDDLE TENNESSEE

CITY           SKY/WX    TMP DP  RH WIND       PRES   REMARKS
TULLAHOMA      CLEAR     81  73  78 CALM      30.01R
WINCHESTER     CLEAR     81  73  78 CALM      30.00R
MCMINNVILLE    CLEAR     79  79 100 CALM      30.00R
SHELBYVILLE    CLEAR     81  77  89 CALM      29.98R
$$

TNZ017-018-042-046-047-280300-
NORTHEAST TENNESSEE

CITY           SKY/WX    TMP DP  RH WIND       PRES   REMARKS
TRI CITIES     PTCLDY    74  71  91 CALM      30.03R
$$

TNZ012-013-036-069-073-074-280300-
CENTRAL EAST TENNESSEE

CITY           SKY/WX    TMP DP  RH WIND       PRES   REMARKS
KNOXVILLE      MOCLDY    82  74  76 NE6       29.99R
OAK RIDGE      PTCLDY    80  72  76 E5        30.01R
GATLINBURG     CLEAR     79  72  78 CALM      29.99R
$$

TNZ083-085-099-280300-
SOUTHEAST TENNESSEE

CITY           SKY/WX    TMP DP  RH WIND       PRES   REMARKS
CHATTANOOGA    MOCLDY    86  73  65 CALM      29.97R HX  93
$$

SKY/WX REPORTED AS FAIR MEANS FEW OR NO CLOUDS BELOW
12 THOUSAND FEET.




USA.gov is the U.S. government's official web portal to all federal, state and local government web resources and services.